Погода в Годы-Доброводке

Украина / Ивано-Франковская область     48˚36′07″N   25˚04′20″E
темп.,
°C
ветер,
м/с
пор.,
м/с
влажн.,
%
обл.,
%
осадки,
мм/ч
давл.,
гПа
погр.,
м
15 января, пт
пт1523:00−3˚зсз41083100 0.1 1009642
02:00−5˚сз61285100 0.6 1011829
05:00−6˚сз61187100 0.2 1012826
08:00−6˚сз51087100 0.2 1014828
11:00−6˚сз6108090 0.1 1016818
14:00−5˚ссз6107495 0.1 1016766
17:00−8˚сз4108248 0.0 1017594
20:00−9˚зсз398762 0.0 1018363
16 января, сб
сб1623:00−9˚юз2283100 0.0 101852
02:00−9˚юз227396 0.0 101848
05:00−8˚зсз2679100 0.1 1017346
08:00−11˚сз71282100 0.3 1019632
11:00−10˚сз5872100 0.0 1020650
14:00−8˚сз466065 0.0 1019949
17:00−10˚с12800 0.0 101927
20:00−10˚ююз227716 0.0 101933
17 января, вс
вс1723:00−10˚юз237181 0.0 101845
02:00−9˚юз226891 0.0 101852
05:00−10˚юз227194 0.0 101737
08:00−10˚ююз227092 0.0 101832
11:00−6˚с115930 0.0 1018228
14:00−5˚ссв336547 0.0 1018455
17:00−8˚ссз249427 0.0 101993
20:00−10˚сз379155 0.1 1021322
18 января, пн
пн1823:00−11˚сз269085 0.0 1023234
02:00−12˚сз248867 0.0 1023122
05:00−12˚ссз3487100 0.0 1023246
08:00−12˚ссз3588100 0.0 1025292
11:00−11˚ссз3578100 0.0 1025457
14:00−9˚ссз3475100 0.0 1024498
17:00−11˚с228984 0.0 102550
20:00−12˚сз129179 0.0 102657
19 января, вт
вт1923:00−12˚з118856 0.0 102729
02:00−12˚юз118228 0.0 102725
05:00−13˚ююз11800 0.0 102724
08:00−12˚юз22750 0.0 102832
11:00−7˚ююз12580 0.0 1027190
14:00−4˚вюв11520 0.0 1026314
17:00−7˚ю127073 0.0 102622
20:00−8˚ююз227569 0.0 102833